Tracking 23764 objects as of 17-Oct-2021
HD Live streaming from Space Station
objects crossing your sky now

DELTA 1 DEB

Track DELTA 1 DEB now!
10-day predictions


NORAD ID: 9040
Int'l Code: 1975-004DE
Perigee: 708.1 km
Apogee: 775.3 km
Inclination: 97.9 °
Period: 99.5 minutes
Semi major axis: 7112 km
RCS: 0.0254 m2 (small)
Launch date: January 22, 1975
Source: United States (US)
Launch site: AIR FORCE WESTERN TEST RANGE (AFWTR)

Note: This is SATELLITE DEBRIS
aabbcc
Your satellite tracking list
Your tracking list is empty




NASA's NSSDC Master Catalog

Two Line Element Set (TLE):
1 09040U 75004DE  21289.38982156  .00000057  00000-0  26337-4 0  9990
2 09040  97.8979  70.2794 0047266 183.3182 176.7706 14.47283212366658
Source of the keplerian elements: AFSPC